Regional Weather Roundup
Issued by NWS

Home | Current Version | Previous Version | Graphics & Text | Print | Product List | Glossary Off
Versions: 1 2 3 4 5 6 7 8 9 10 11 12 13 14 15 16 17 18 19 20 21 22 23 24 25 26 27 28 29 30 31 32 33 34 35 36 37 38 39 40 41 42 43 44 45 46 47 48 49 50

000
ASUS43 KTOP 210808
RWRKS

WEATHER ROUNDUP FOR KANSAS
NATIONAL WEATHER SERVICE GOODLAND KS
200 AM CST FRI NOV 21 2014

NOTE:  "FAIR" INDICATES FEW OR NO CLOUDS BELOW 12,000 FEET WITH NO
SIGNIFICANT WEATHER AND/OR OBSTRUCTIONS TO VISIBILITY.

KSZ001>006-013>018-027>032-041>047-210900-
NORTHWEST KANSAS

CITY           SKY/WX    TMP DP  RH WIND       PRES   REMARKS
GOODLAND       CLOUDY    33  24  69 S10       30.02F WCI  25
HAYS           PTCLDY    27  16  63 E6        30.12F
HILL CITY      MOCLDY    24  18  77 E6        30.11F
RUSSELL        PTCLDY    25  19  78 SE3       30.12F
$$

KSZ061>065-074>080-084>089-210900-
SOUTHWEST KANSAS

CITY           SKY/WX    TMP DP  RH WIND       PRES   REMARKS
DODGE CITY     PTCLDY    28  22  78 E6        30.09F
ELKHART          N/A     30  25  82 S7          N/A
GARDEN CITY    MOCLDY    33  27  78 SE9       30.07S
GREAT BEND     PTCLDY    27  18  69 E3        30.14F
LIBERAL        CLEAR     34  25  69 E7        30.08S
PRATT          PTCLDY    30  23  74 E3        30.12F
$$

KSZ066>073-081>083-090>101-210900-
SOUTHEAST KANSAS

CITY           SKY/WX    TMP DP  RH WIND       PRES   REMARKS
CHANUTE        PTCLDY    33  23  66 E9        30.18F
COFFEYVILLE    CLEAR     31  25  78 NE7       30.17F
HUTCHINSON     PTCLDY    28  21  75 NE5       30.15F
MEDICINE LODGE   N/A     30  23  75 NE5       30.11F
NEWTON         CLEAR     27  18  69 E8        30.16F
PARSONS        CLEAR     34  25  69 VRB7      30.18F
WICHITA INTL   MOCLDY    33  22  63 E7        30.14F
WICHITA JABRA  CLEAR     29  22  75 NE6       30.14F
WICHITA MCCONL PTCLDY    32  22  66 E8        30.14S
WINFIELD       CLEAR     36  24  62 E10       30.13F WCI  28
$$

KSZ007>012-019>026-033>040-048>060-102>105-210900-
NORTHEAST KANSAS

CITY           SKY/WX    TMP DP  RH WIND       PRES   REMARKS
CONCORDIA      PTCLDY    20  17  88 E5        30.18F
EMPORIA        PTCLDY    25  18  74 E8        30.19F
LAWRENCE       PTCLDY    22  15  75 E5        30.26F
MANHATTAN      CLEAR     21  17  84 NE7       30.22F
MARYSVILLE     CLEAR     23  19  86 SE7       30.22S
OLATHE IND     CLEAR     25  17  72 E7        30.24F
OLATHE EXE     CLEAR     26  17  68 E9        30.23F
SALINA         PTCLDY    26  17  68 NE3       30.19F
TOPEKA BILLARD PTCLDY    24  17  74 E5        30.25F
TOPEKA FORBES  PTCLDY    26  17  68 E5        30.23F
$$


USA.gov is the U.S. government's official web portal to all federal, state and local government web resources and services.